Regional Weather Roundup
Issued by NWS Jackson, KY

Home | Current Version | Previous Version | Text Only | Print | Product List | Glossary Off
Versions: 1 2 3 4 5 6 7 8 9 10 11 12 13 14 15 16 17 18 19 20 21 22 23 24 25 26 27 28 29 30 31 32 33 34 35 36 37 38 39 40 41 42 43 44 45 46 47 48 49 50

000
ASUS43 KJKL 040010
RWRJKL

EAST KENTUCKY HOURLY WEATHER ROUNDUP
NATIONAL WEATHER SERVICE JACKSON KY
800 PM EDT SUN MAY 03 2015

NOTE: "FAIR" INDICATES FEW OR NO CLOUDS BELOW 12,000 FEET WITH
NO SIGNIFICANT WEATHER AND/OR OBSTRUCTIONS TO VISIBILITY.

* THESE REPORTS ARE NOT UNDER NWS QUALITY CONTROL AND MAY NOT
  REPORT WEATHER SUCH AS PRECIPITATION AND FOG.

KYZ079-080-083-085-087-088-110-112-115-119-120-040100
...EASTERN KENTUCKY...

CITY           SKY/WX    TMP DP  RH WIND       PRES   REMARKS
JACKSON        PTCLDY    74  38  27 CALM      30.12R
6HR MIN TEMP:  73; 6HR MAX TEMP:  79;

LONDON         CLOUDY    74  45  35 CALM      30.11R
6HR MIN TEMP:  74; 6HR MAX TEMP:  79;

SOMERSET*      CLEAR     73  43  33 NW3       30.11R
MONTICELLO*    CLEAR     75  48  38 W5        30.13R
6HR MIN TEMP:  75; 6HR MAX TEMP:  81;

MIDDLESBORO*   PTCLDY    73  44  34 S5        30.12S
6HR MIN TEMP:  73; 6HR MAX TEMP:  78;

HARLAN APT*    PTCLDY    73  36  25 SW3       30.13R
HAZARD APT*    PTCLDY    75  39  27 CALM      30.12R
BLACK MTN*       N/A     61  39  44 SW5         N/A
PIKEVILLE APT* CLEAR     72  41  33 N3        30.12R
BIG SANDY*     CLEAR     73  44  35 CALM      30.11S
MOREHEAD APT*  CLEAR     73  45  35 CALM      30.12S
$$

KYZ035-036-041-042-044-050-067-078-099-040100
...CENTRAL KENTUCKY...

CITY           SKY/WX    TMP DP  RH WIND       PRES   REMARKS
MT STERLING*   CLEAR     72  46  40 W5        30.12S
FLEMING/MASON* CLEAR     70  46  43 W5        30.11R
DANVILLE*      CLEAR     72  46  40 SW3       30.10S
RICHMOND*      CLEAR     75  43  31 CALM      30.10R
LEXINGTON      CLEAR     72  48  42 S5        30.10R
6HR MIN TEMP:  72; 6HR MAX TEMP:  77;

FRANKFORT      CLEAR     71  47  42 S8        30.07S
6HR MIN TEMP:  71; 6HR MAX TEMP:  78;

$$

KYZ091>093-OHZ055-061-077-WVZ005-015-034-035-042-040100
...SOUTHERN OHIO/WEST VIRGINIA...

CITY           SKY/WX    TMP DP  RH WIND       PRES   REMARKS
COVINGTON      PTCLDY    71  47  42 S7        30.07S
COLUMBUS       PTCLDY    74  44  34 SW10      30.07S
DAYTON         PTCLDY    73  47  39 S9        30.07F
WILMINGTON     CLEAR     70  45  40 S6        30.08S
HUNTINGTON     CLEAR     74  39  28 S3        30.09S
CHARLESTON     PTCLDY    74  34  23 SW5       30.10S
PINEVILLE*     PTCLDY    65  46  51 MISG      30.18S
BECKLEY        MOCLDY    68  32  26 CALM      30.17R
BLUEFIELD      PTCLDY    70  32  24 W3        30.18R
$$

VAZ002-007-008-TNZ017-027-036-066-071-040100
...SOUTHWEST VIRGINIA/EAST TENNESSEE...

CITY           SKY/WX    TMP DP  RH WIND       PRES   REMARKS
WISE*          PTCLDY    68  34  28 SW3       30.18R
JONESVILLE*    PTCLDY    73  41  31 CALM      30.15R
ABINGDON*      PTCLDY    72  37  28 CALM      30.16R
BRISTOL        PTCLDY    72  42  34 W7        30.13S
KNOXVILLE      MOCLDY    73  47  39 W3        30.11S
OAK RIDGE      PTCLDY    75  45  34 CALM      30.13R
CROSSVILLE     PTCLDY    71  46  40 S5        30.15R
NASHVILLE      MOCLDY    75  49  39 SW7       30.09R
$$

...KEY TO REMARKS...
VSB - VISIBILITY IN MILES
WCI - WIND CHILL INDEX
HX  - HEAT INDEX

$$



USA.gov is the U.S. government's official web portal to all federal, state and local government web resources and services.